CW4621 Weather Reports


Display with metric or nautical units.
time (UTC)temp
F
wind
direction
speed
MPH
gust
MPH
rain 1hr
in
rain 24hr
in
rain mn
in
humidity
%
barometer
mb
20260831124604 73 13 0.0 1.0 0.00 0.00 0.00 77 1019.4
20260831124104 73 13 0.0 1.0 0.00 0.00 0.00 77 1019.3
20260831123604 72 20 0.0 2.0 0.00 0.00 0.00 77 1019.3
20260831123104 72 23 1.0 3.0 0.00 0.00 0.00 77 1019.4
20260831122604 72 356 0.0 3.0 0.00 0.00 0.00 77 1019.2
20260831122105 72 9 0.0 1.0 0.00 0.00 0.00 78 1019.2
20260831121605 72 7 0.0 1.0 0.00 0.00 0.00 78 1019.1
20260831121105 72 5 0.0 1.0 0.00 0.00 0.00 79 1019.1
20260831115604 71 30 0.0 1.0 0.00 0.00 0.00 81 1019.2
20260831115104 71 30 1.0 1.0 0.00 0.00 0.00 82 1019.2
20260831114604 71 359 0.0 1.0 0.00 0.00 0.00 84 1019.1
20260831114105 71 359 0.0 1.0 0.00 0.00 0.00 87 1019.0
20260831113604 71 0 0.0 1.0 0.00 0.00 0.00 89 1019.0
20260831113105 71 354 0.0 1.0 0.00 0.00 0.00 91 1018.8
20260831112604 71 353 0.0 1.0 0.00 0.00 0.00 93 1018.7
20260831112104 71 349 0.0 0.0 0.00 0.00 0.00 93 1018.7
20260831111605 71 349 0.0 0.0 0.00 0.00 0.00 93 1018.8
20260831111105 70 349 0.0 0.0 0.00 0.00 0.00 93 1018.7
20260831110604 70 349 0.0 0.0 0.00 0.00 0.00 93 1018.7
20260831105605 70 348 0.0 0.0 0.00 0.00 0.00 93 1018.7
20260831105104 70 348 0.0 0.0 0.00 0.00 0.00 93 1018.6
20260831104604 70 348 0.0 0.0 0.00 0.00 0.00 93 1018.6
20260831103105 70 348 0.0 0.0 0.00 0.00 0.00 93 1018.4
20260831102604 70 348 0.0 0.0 0.00 0.00 0.00 93 1018.4
20260831102105 70 349 0.0 1.0 0.00 0.00 0.00 93 1018.4
20260831101605 70 20 0.0 1.0 0.00 0.00 0.00 93 1018.2
20260831101105 70 352 0.0 1.0 0.00 0.00 0.00 93 1018.1
20260831100604 70 352 0.0 1.0 0.00 0.00 0.00 93 1018.0
20260831100105 70 347 0.0 0.0 0.00 0.00 0.00 93 1018.1
20260831095604 70 347 0.0 0.0 0.00 0.00 0.00 93 1017.9
20260831095104 70 347 0.0 1.0 0.00 0.00 0.00 93 1017.9
20260831094605 70 347 0.0 0.0 0.00 0.00 0.00 92 1018.0
20260831093604 70 347 0.0 0.0 0.00 0.00 0.00 90 1017.9
20260831093104 70 347 0.0 0.0 0.00 0.00 0.00 90 1018.0
20260831092605 70 347 0.0 0.0 0.00 0.00 0.00 90 1018.0
20260831092104 70 347 0.0 0.0 0.00 0.00 0.00 89 1018.0
20260831091605 70 347 0.0 0.0 0.00 0.00 0.00 88 1017.9
20260831091104 70 347 0.0 0.0 0.00 0.00 0.00 88 1017.8
20260831090104 70 347 0.0 0.0 0.00 0.00 0.00 87 1017.7
20260831085605 70 347 0.0 0.0 0.00 0.00 0.00 87 1017.6
20260831085104 70 347 0.0 0.0 0.00 0.00 0.00 87 1017.6
20260831084604 71 347 0.0 0.0 0.00 0.00 0.00 87 1017.6
20260831084104 71 347 0.0 0.0 0.00 0.00 0.00 87 1017.6
20260831083604 71 347 0.0 0.0 0.00 0.00 0.00 87 1017.5
20260831083105 71 347 0.0 1.0 0.00 0.00 0.00 87 1017.5
20260831082604 71 347 0.0 1.0 0.00 0.00 0.00 87 1017.6
20260831082105 71 347 0.0 1.0 0.00 0.00 0.00 87 1017.7
20260831081605 71 347 0.0 1.0 0.00 0.00 0.00 86 1017.8
20260831081104 71 345 0.0 0.0 0.00 0.00 0.00 85 1017.7
20260831080604 71 345 0.0 0.0 0.00 0.00 0.00 85 1017.7
20260831080104 71 345 0.0 0.0 0.00 0.00 0.00 85 1017.7
20260831075104 71 345 0.0 0.0 0.00 0.00 0.00 84 1017.8
20260831074605 71 345 0.0 0.0 0.00 0.00 0.00 84 1017.7
20260831073604 72 345 0.0 0.0 0.00 0.00 0.00 84 1017.7
20260831072605 72 345 0.0 0.0 0.00 0.00 0.00 83 1017.7
20260831072104 72 345 0.0 0.0 0.00 0.00 0.00 83 1017.7
20260831071604 72 345 0.0 0.0 0.00 0.00 0.00 83 1017.8
20260831071105 72 345 0.0 0.0 0.00 0.00 0.00 83 1017.8
20260831070604 72 345 0.0 0.0 0.00 0.00 0.00 83 1017.9
20260831070105 72 345 0.0 0.0 0.00 0.00 0.00 83 1018.0
20260831065604 72 345 0.0 1.0 0.00 0.00 0.00 83 1017.9
20260831064604 72 345 0.0 0.0 0.00 0.00 0.00 83 1017.9
20260831064105 72 345 0.0 0.0 0.00 0.00 0.00 82 1017.9
20260831063604 72 345 0.0 1.0 0.00 0.00 0.00 82 1017.9
20260831063104 72 345 0.0 0.0 0.00 0.00 0.00 81 1017.8
20260831062605 72 345 0.0 0.0 0.00 0.00 0.00 81 1017.9
20260831062104 72 345 0.0 0.0 0.00 0.00 0.00 81 1017.8
20260831061604 73 345 0.0 0.0 0.00 0.00 0.00 81 1017.8
20260831060604 73 345 0.0 0.0 0.00 0.00 0.00 80 1018.0
20260831060105 73 345 0.0 0.0 0.00 0.00 0.00 80 1018.1
20260831055604 73 345 0.0 0.0 0.00 0.00 0.00 80 1018.1
20260831055104 73 345 0.0 0.0 0.00 0.00 0.00 80 1018.1
20260831054104 74 345 0.0 0.0 0.00 0.00 0.00 80 1018.3
20260831053604 74 345 0.0 0.0 0.00 0.00 0.00 80 1018.3
20260831052604 74 345 0.0 0.0 0.00 0.00 0.00 79 1018.2
20260831051604 74 345 0.0 1.0 0.00 0.00 0.00 79 1017.9
20260831051104 75 345 0.0 2.0 0.00 0.00 0.00 79 1018.0
20260831050604 75 35 0.0 0.0 0.00 0.00 0.00 79 1018.1
20260831050104 75 35 0.0 3.0 0.00 0.00 0.00 79 1018.1
20260831045604 75 27 0.0 2.0 0.00 0.00 0.00 79 1018.1
20260831044104 76 0 0.0 1.0 0.00 0.00 0.00 80 1018.2
20260831043604 76 359 0.0 1.0 0.00 0.00 0.00 81 1018.3
20260831043104 76 359 0.0 1.0 0.00 0.00 0.00 80 1018.2
20260831042604 76 359 0.0 0.0 0.00 0.00 0.00 80 1018.2
20260831042104 76 359 0.0 0.0 0.00 0.00 0.00 80 1018.1
20260831041104 76 359 0.0 0.0 0.00 0.00 0.00 80 1018.1
20260831040604 76 359 0.0 0.0 0.00 0.00 0.00 80 1018.1
20260831040104 76 359 0.0 1.0 0.00 0.00 0.00 80 1018.3
20260831035104 76 353 0.0 2.0 0.00 0.00 0.00 80 1018.3
20260831034605 76 232 0.0 1.0 0.00 0.00 0.00 80 1018.2
20260831034104 76 231 0.0 2.0 0.00 0.00 0.00 80 1018.0
20260831033605 76 233 0.0 1.0 0.00 0.00 0.00 80 1018.0
20260831033104 76 245 0.0 1.0 0.00 0.00 0.00 80 1017.9
20260831032604 76 262 0.0 3.0 0.00 0.00 0.00 80 1017.9
20260831031605 76 221 0.0 2.0 0.00 0.00 0.00 80 1018.0
20260831031104 76 40 0.0 1.0 0.00 0.00 0.00 80 1017.9
20260831030104 77 240 0.0 3.0 0.00 0.00 0.00 80 1017.8
20260831025604 77 139 1.0 3.0 0.00 0.00 0.00 80 1017.7
20260831025104 77 226 0.0 2.0 0.00 0.00 0.00 80 1017.7
20260831024105 77 152 1.0 2.0 0.00 0.00 0.00 79 1017.7
20260831023604 77 195 0.0 1.0 0.00 0.00 0.00 79 1017.8
20260831023105 77 152 0.0 3.0 0.00 0.00 0.00 79 1017.8
20260831022605 77 144 0.0 1.0 0.00 0.00 0.00 79 1018.0
20260831022104 77 143 0.0 3.0 0.00 0.00 0.00 79 1017.9
20260831021604 77 131 0.0 1.0 0.00 0.00 0.00 79 1017.8
20260831021104 77 129 0.0 2.0 0.00 0.00 0.00 79 1017.9
20260831020604 78 138 0.0 1.0 0.00 0.00 0.00 79 1018.0
20260831020104 78 186 0.0 2.0 0.00 0.00 0.00 78 1018.0
20260831015604 78 154 0.0 3.0 0.00 0.00 0.00 78 1018.0
20260831014604 78 231 0.0 1.0 0.00 0.00 0.00 77 1018.2
20260831014104 78 150 0.0 2.0 0.00 0.00 0.00 77 1018.2
20260831013604 78 150 0.0 2.0 0.00 0.00 0.00 77 1018.2
20260831013104 78 152 1.0 3.0 0.00 0.00 0.00 76 1018.2
20260831012604 79 163 1.0 3.0 0.00 0.00 0.00 76 1018.1
20260831012104 79 204 1.0 2.0 0.00 0.00 0.00 76 1018.1
20260831011604 79 117 0.0 1.0 0.00 0.00 0.00 76 1018.1
20260831011105 79 128 1.0 3.0 0.00 0.00 0.00 76 1018.1
20260831010605 79 200 0.0 2.0 0.00 0.00 0.00 75 1018.1
20260831005604 79 127 0.0 3.0 0.00 0.00 0.00 75 1018.2
20260831005104 79 133 0.0 1.0 0.00 0.00 0.00 74 1018.0
20260831004604 79 134 0.0 1.0 0.00 0.00 0.00 74 1017.9
20260831004105 79 140 1.0 3.0 0.00 0.00 0.00 74 1017.8
20260831003105 80 163 0.0 0.0 0.00 0.00 0.00 73 1017.8
20260831002605 80 137 0.0 2.0 0.00 0.00 0.00 73 1017.8
20260831002105 80 137 1.0 3.0 0.00 0.00 0.00 72 1017.7
20260831001605 80 249 0.0 1.0 0.00 0.00 0.00 72 1017.7
20260831001105 80 168 1.0 3.0 0.00 0.00 0.00 72 1017.6
20260831000104 80 227 0.0 0.0 0.00 0.00 0.00 71 1017.5
20260830235605 80 227 0.0 1.0 0.00 0.00 0.00 71 1017.5
20260830235105 80 227 0.0 1.0 0.00 0.00 0.00 71 1017.5
20260830234605 81 229 0.0 0.0 0.00 0.00 0.00 70 1017.6
20260830234105 81 229 0.0 0.0 0.00 0.00 0.00 70 1017.5
20260830233604 81 229 0.0 1.0 0.00 0.00 0.00 70 1017.5
20260830233105 81 229 0.0 0.0 0.00 0.00 0.00 69 1017.6
20260830232605 82 229 0.0 1.0 0.00 0.00 0.00 69 1017.6
20260830232104 82 229 0.0 1.0 0.00 0.00 0.00 69 1017.6
20260830231604 82 250 0.0 2.0 0.00 0.00 0.00 69 1017.7
20260830231105 82 278 1.0 3.0 0.00 0.00 0.00 68 1017.6
20260830230605 82 143 0.0 1.0 0.00 0.00 0.00 68 1017.6
20260830230105 83 276 0.0 2.0 0.00 0.00 0.00 68 1017.5
20260830225606 83 249 1.0 3.0 0.00 0.00 0.00 67 1017.5
20260830225105 83 280 1.0 3.0 0.00 0.00 0.00 67 1017.4
20260830224605 83 282 0.0 3.0 0.00 0.00 0.00 67 1017.4
20260830224105 83 223 2.0 5.0 0.00 0.00 0.00 66 1017.4
20260830223605 83 235 0.0 5.0 0.00 0.00 0.00 66 1017.5
20260830223105 83 238 1.0 5.0 0.00 0.00 0.00 66 1017.5
20260830222605 84 228 1.0 3.0 0.00 0.00 0.00 65 1017.5
20260830222105 84 190 0.0 3.0 0.00 0.00 0.00 65 1017.5
20260830221605 84 356 1.0 3.0 0.00 0.00 0.00 65 1017.5
20260830221105 84 215 1.0 3.0 0.00 0.00 0.00 64 1017.4
20260830220605 84 239 1.0 6.0 0.00 0.00 0.00 63 1017.3
20260830220104 85 108 1.0 5.0 0.00 0.00 0.00 63 1017.4
20260830215105 86 209 1.0 3.0 0.00 0.00 0.00 62 1017.3
20260830214106 85 275 1.0 6.0 0.00 0.00 0.00 62 1017.3
20260830213105 86 220 1.0 3.0 0.00 0.00 0.00 62 1017.4
20260830212604 85 245 2.0 5.0 0.00 0.00 0.00 62 1017.4
20260830211605 85 245 1.0 5.0 0.00 0.00 0.00 62 1017.4
20260830211105 84 50 1.0 6.0 0.00 0.00 0.00 62 1017.5
20260830210605 85 231 1.0 3.0 0.00 0.00 0.00 61 1017.5
20260830210104 85 280 1.0 6.0 0.00 0.00 0.00 61 1017.5
20260830205605 85 247 1.0 3.0 0.00 0.00 0.00 61 1017.4
20260830205105 85 215 1.0 5.0 0.00 0.00 0.00 61 1017.4
20260830204604 85 229 1.0 5.0 0.00 0.00 0.00 61 1017.4
20260830204104 84 240 2.0 6.0 0.00 0.00 0.00 61 1017.4
20260830203605 85 256 1.0 6.0 0.00 0.00 0.00 60 1017.5
20260830203105 86 211 3.0 5.0 0.00 0.00 0.00 60 1017.5
20260830202604 85 283 1.0 3.0 0.00 0.00 0.00 61 1017.6
20260830202104 85 60 1.0 3.0 0.00 0.00 0.00 61 1017.6
20260830201605 85 3 2.0 3.0 0.00 0.00 0.00 62 1017.7
20260830201105 85 265 2.0 8.0 0.00 0.00 0.00 62 1017.7
20260830200605 85 239 3.0 10.0 0.00 0.00 0.00 61 1017.8
20260830200105 85 262 1.0 9.0 0.00 0.00 0.00 62 1017.9
20260830195604 85 240 3.0 12.0 0.00 0.00 0.00 61 1017.9
20260830195104 86 265 2.0 9.0 0.00 0.00 0.00 61 1017.9
20260830194605 86 209 2.0 8.0 0.00 0.00 0.00 60 1017.9
20260830193604 87 147 3.0 6.0 0.00 0.00 0.00 60 1018.0
20260830192104 85 226 3.0 8.0 0.00 0.00 0.00 61 1018.2
20260830191604 86 15 1.0 10.0 0.00 0.00 0.00 63 1018.3
20260830191104 85 207 2.0 5.0 0.00 0.00 0.00 61 1018.3
20260830190604 85 227 1.0 5.0 0.00 0.00 0.00 63 1018.5
20260830190104 86 229 3.0 7.0 0.00 0.00 0.00 60 1018.5
20260830185605 86 242 4.0 9.0 0.00 0.00 0.00 61 1018.5
20260830185104 86 172 2.0 3.0 0.00 0.00 0.00 62 1018.6
20260830184604 86 290 2.0 5.0 0.00 0.00 0.00 61 1018.6
20260830184104 86 41 1.0 8.0 0.00 0.00 0.00 61 1018.6
20260830183604 86 251 1.0 3.0 0.00 0.00 0.00 63 1018.7
20260830182604 85 232 2.0 5.0 0.00 0.00 0.00 61 1018.9
20260830182104 85 244 3.0 9.0 0.00 0.00 0.00 61 1019.0
20260830181604 85 221 2.0 5.0 0.00 0.00 0.00 62 1019.0
20260830181104 84 207 2.0 5.0 0.00 0.00 0.00 62 1019.0
20260830180105 84 219 3.0 6.0 0.00 0.00 0.00 63 1019.1
20260830175605 84 209 1.0 3.0 0.00 0.00 0.00 63 1019.2
20260830174605 84 303 1.0 3.0 0.00 0.00 0.00 64 1019.5
20260830174104 84 239 2.0 6.0 0.00 0.00 0.00 63 1019.5
20260830173605 84 146 1.0 3.0 0.00 0.00 0.00 63 1019.6
20260830173105 84 351 2.0 5.0 0.00 0.00 0.00 62 1019.7
20260830172605 84 251 2.0 6.0 0.00 0.00 0.00 62 1019.9
20260830172104 84 263 1.0 3.0 0.00 0.00 0.00 63 1019.8
20260830171604 84 257 1.0 3.0 0.00 0.00 0.00 64 1019.9
20260830171104 83 212 1.0 3.0 0.00 0.00 0.00 64 1020.0
20260830170604 83 285 3.0 6.0 0.00 0.00 0.00 62 1020.1
20260830170105 83 234 3.0 7.0 0.00 0.00 0.00 63 1020.1
20260830165604 84 222 2.0 7.0 0.00 0.00 0.00 62 1020.1
20260830165105 84 196 3.0 7.0 0.00 0.00 0.00 61 1020.1
20260830164604 84 204 2.0 10.0 0.00 0.00 0.00 61 1020.1
20260830164105 84 151 2.0 7.0 0.00 0.00 0.00 63 1020.2
20260830163604 83 219 3.0 13.0 0.00 0.00 0.00 63 1020.3
20260830163104 83 154 3.0 7.0 0.00 0.00 0.00 62 1020.3
20260830162604 82 219 3.0 7.0 0.00 0.00 0.00 62 1020.3
20260830162104 83 199 3.0 8.0 0.00 0.00 0.00 61 1020.4
20260830161604 83 227 2.0 9.0 0.00 0.00 0.00 61 1020.4
20260830161104 84 258 2.0 3.0 0.00 0.00 0.00 62 1020.5
20260830160605 83 234 2.0 8.0 0.00 0.00 0.00 61 1020.4
20260830160104 84 252 1.0 3.0 0.00 0.00 0.00 63 1020.5
20260830155104 83 212 2.0 6.0 0.00 0.00 0.00 67 1020.5
20260830154604 83 188 2.0 6.0 0.00 0.00 0.00 66 1020.5
20260830154104 82 234 2.0 7.0 0.00 0.00 0.00 66 1020.5
20260830153604 82 254 1.0 3.0 0.00 0.00 0.00 68 1020.5
20260830153105 82 203 3.0 7.0 0.00 0.00 0.00 68 1020.5
20260830152604 81 209 3.0 7.0 0.00 0.00 0.00 68 1020.5
20260830152104 81 173 2.0 8.0 0.00 0.00 0.00 69 1020.6
20260830151604 81 150 3.0 13.0 0.00 0.00 0.00 70 1020.7
20260830151104 81 225 3.0 5.0 0.00 0.00 0.00 70 1020.7
20260830150604 80 203 1.0 7.0 0.00 0.00 0.00 71 1020.7
20260830150104 80 233 1.0 3.0 0.00 0.00 0.00 72 1020.6
20260830145604 80 208 2.0 5.0 0.00 0.00 0.00 71 1020.6
20260830145104 80 266 2.0 6.0 0.00 0.00 0.00 70 1020.7
20260830144605 79 107 2.0 3.0 0.00 0.00 0.00 72 1020.7
20260830144104 79 208 2.0 5.0 0.00 0.00 0.00 71 1020.8
20260830143604 78 194 2.0 3.0 0.00 0.00 0.00 72 1021.0
20260830143104 77 232 1.0 3.0 0.00 0.00 0.00 73 1021.0
20260830142104 76 132 0.0 3.0 0.00 0.00 0.00 74 1021.2
20260830141604 76 199 0.0 7.0 0.00 0.00 0.00 75 1021.3
20260830141104 75 116 2.0 7.0 0.00 0.00 0.00 75 1021.2
20260830140104 74 184 2.0 5.0 0.00 0.00 0.00 79 1021.4
20260830135604 74 242 1.0 3.0 0.00 0.00 0.00 80 1021.4
20260830134605 73 152 1.0 3.0 0.00 0.00 0.00 82 1021.5
20260830133104 71 235 1.0 3.0 0.00 0.00 0.00 84 1021.7
20260830132104 70 170 1.0 3.0 0.00 0.00 0.00 85 1021.8
20260830131604 69 158 0.0 1.0 0.00 0.00 0.00 85 1021.8
20260830131104 69 133 1.0 1.0 0.00 0.00 0.00 86 1021.9
20260830130604 68 130 0.0 2.0 0.00 0.00 0.00 86 1021.9
20260830130105 68 108 0.0 3.0 0.00 0.00 0.00 87 1022.0
20260830125605 68 149 0.0 1.0 0.00 0.00 0.00 87 1022.1
20260830125105 67 150 0.0 0.0 0.00 0.00 0.00 87 1022.2